Time,TemperatureF,DewpointF,PressureIn,WindDirection,WindDirectionDegrees,WindSpeedMPH,WindSpeedGustMPH,Humidity,HourlyPrecipIn,Conditions,Clouds,dailyrainin,SolarRadiationWatts/m^2,SoftwareType,DateUTC
2013-02-02 00:01:00,38.0,38.0,-100.00,NNW,331,0.0,0.0,99,0.00,,,0.01,0.000000,,2013-02-02 08:01:00,
2013-02-02 00:11:00,38.0,38.0,-100.00,NNW,331,0.0,0.0,99,0.00,,,0.01,0.000000,,2013-02-02 08:11:00,
2013-02-02 01:32:00,38.0,38.0,-100.00,North,351,0.0,0.0,99,-99.99,,,0.01,0.000000,,2013-02-02 09:32:00,
2013-02-02 01:42:00,38.0,38.0,-100.00,North,351,0.0,0.0,99,-99.99,,,0.01,0.000000,,2013-02-02 09:42:00,
2013-02-02 01:52:00,38.0,38.0,-100.00,North,351,0.0,0.0,99,-99.99,,,0.01,0.000000,,2013-02-02 09:52:00,
2013-02-02 02:01:00,38.0,38.0,-100.00,North,351,0.0,0.0,99,-99.99,,,0.01,0.000000,,2013-02-02 10:01:00,
2013-02-02 02:11:00,38.0,38.0,-100.00,North,351,0.0,0.0,99,-99.99,,,0.01,0.000000,,2013-02-02 10:11:00,
2013-02-02 02:32:00,37.0,37.0,-100.00,East,86,0.0,0.0,99,0.00,,,0.01,0.000000,,2013-02-02 10:32:00,
2013-02-02 02:42:00,37.0,37.0,-100.00,East,86,0.0,0.0,99,0.00,,,0.01,0.000000,,2013-02-02 10:42:00,
2013-02-02 02:52:00,37.0,37.0,-100.00,East,86,0.0,0.0,99,0.00,,,0.01,0.000000,,2013-02-02 10:52:00,
2013-02-02 03:01:00,37.0,37.0,-100.00,East,86,0.0,0.0,99,0.00,,,0.01,0.000000,,2013-02-02 11:01:00,
2013-02-02 03:11:00,37.0,37.0,-100.00,East,86,0.0,0.0,99,0.00,,,0.01,0.000000,,2013-02-02 11:11:00,
2013-02-02 03:32:00,36.0,36.0,-100.00,ENE,69,0.0,0.0,99,0.00,,,0.01,0.000000,,2013-02-02 11:32:00,
2013-02-02 03:42:00,36.0,36.0,-100.00,ENE,69,0.0,0.0,99,0.00,,,0.01,0.000000,,2013-02-02 11:42:00,
2013-02-02 03:52:00,36.0,36.0,-100.00,ENE,69,0.0,0.0,99,0.00,,,0.01,0.000000,,2013-02-02 11:52:00,
2013-02-02 04:01:00,36.0,36.0,-100.00,ENE,69,0.0,0.0,99,0.00,,,0.01,0.000000,,2013-02-02 12:01:00,
2013-02-02 04:11:00,36.0,36.0,-100.00,ENE,69,0.0,0.0,99,0.00,,,0.01,0.000000,,2013-02-02 12:11:00,
2013-02-02 04:32:00,35.0,35.0,-100.00,ENE,62,0.0,0.0,99,0.00,,,0.01,0.000000,,2013-02-02 12:32:00,
2013-02-02 04:42:00,35.0,35.0,-100.00,ENE,62,0.0,0.0,99,0.00,,,0.01,0.000000,,2013-02-02 12:42:00,
2013-02-02 04:52:00,35.0,35.0,-100.00,ENE,62,0.0,0.0,99,0.00,,,0.01,0.000000,,2013-02-02 12:52:00,
2013-02-02 05:02:00,35.0,35.0,-100.00,ENE,62,0.0,0.0,99,0.00,,,0.01,0.000000,,2013-02-02 13:02:00,
2013-02-02 05:11:00,35.0,35.0,-100.00,ENE,62,0.0,0.0,99,0.00,,,0.01,0.000000,,2013-02-02 13:11:00,
2013-02-02 05:33:00,34.0,34.0,-100.00,North,1,0.0,0.0,99,0.00,,,0.01,0.000000,,2013-02-02 13:33:00,
2013-02-02 05:42:00,34.0,34.0,-100.00,North,1,0.0,0.0,99,0.00,,,0.01,0.000000,,2013-02-02 13:42:00,
2013-02-02 05:52:00,34.0,34.0,-100.00,North,1,0.0,0.0,99,0.00,,,0.01,0.000000,,2013-02-02 13:52:00,
2013-02-02 06:02:00,34.0,34.0,-100.00,North,1,0.0,0.0,99,0.00,,,0.01,0.000000,,2013-02-02 14:02:00,
2013-02-02 06:11:00,34.0,34.0,-100.00,North,1,0.0,0.0,99,0.00,,,0.01,0.000000,,2013-02-02 14:11:00,
2013-02-02 06:33:00,33.0,33.0,-100.00,ENE,64,0.0,0.0,99,0.01,,,0.02,0.000000,,2013-02-02 14:33:00,
2013-02-02 06:42:00,33.0,33.0,-100.00,ENE,64,0.0,0.0,99,0.01,,,0.02,0.000000,,2013-02-02 14:42:00,
2013-02-02 06:52:00,33.0,33.0,-100.00,ENE,64,0.0,0.0,99,0.01,,,0.02,0.000000,,2013-02-02 14:52:00,
2013-02-02 07:02:00,33.0,33.0,-100.00,ENE,64,0.0,0.0,99,0.01,,,0.02,0.000000,,2013-02-02 15:02:00,
2013-02-02 07:11:00,33.0,33.0,-100.00,ENE,64,0.0,0.0,99,0.01,,,0.02,0.000000,,2013-02-02 15:11:00,
2013-02-02 07:33:00,32.0,32.0,-100.00,NNE,33,0.0,0.0,99,0.00,,,0.02,0.000000,,2013-02-02 15:33:00,
2013-02-02 07:42:00,32.0,32.0,-100.00,NNE,33,0.0,0.0,99,0.00,,,0.02,0.000000,,2013-02-02 15:42:00,
2013-02-02 07:52:00,32.0,32.0,-100.00,NNE,33,0.0,0.0,99,0.00,,,0.02,0.000000,,2013-02-02 15:52:00,
2013-02-02 08:02:00,32.0,32.0,-100.00,NNE,33,0.0,0.0,99,0.00,,,0.02,0.000000,,2013-02-02 16:02:00,
2013-02-02 08:11:00,32.0,32.0,-100.00,NNE,33,0.0,0.0,99,0.00,,,0.02,0.000000,,2013-02-02 16:11:00,
2013-02-02 08:42:00,33.0,33.0,-100.00,East,98,0.0,0.0,99,0.00,,,0.02,12.000000,,2013-02-02 16:42:00,
2013-02-02 08:52:00,33.0,33.0,-100.00,East,98,0.0,0.0,99,0.00,,,0.02,12.000000,,2013-02-02 16:52:00,
2013-02-02 09:02:00,33.0,33.0,-100.00,East,98,0.0,0.0,99,0.00,,,0.02,12.000000,,2013-02-02 17:02:00,
2013-02-02 09:11:00,33.0,33.0,-100.00,East,98,0.0,0.0,99,0.00,,,0.02,12.000000,,2013-02-02 17:11:00,
2013-02-02 09:33:00,33.0,33.0,-100.00,NW,314,0.0,0.0,99,0.00,,,0.01,67.000000,,2013-02-02 17:33:00,
2013-02-02 09:42:00,33.0,33.0,-100.00,NW,314,0.0,0.0,99,0.00,,,0.01,67.000000,,2013-02-02 17:42:00,
2013-02-02 09:52:00,33.0,33.0,-100.00,NW,314,0.0,0.0,99,0.00,,,0.01,67.000000,,2013-02-02 17:52:00,
2013-02-02 10:02:00,33.0,33.0,-100.00,NW,314,0.0,0.0,99,0.00,,,0.01,67.000000,,2013-02-02 18:02:00,
2013-02-02 10:11:00,33.0,33.0,-100.00,NW,314,0.0,0.0,99,0.00,,,0.01,67.000000,,2013-02-02 18:11:00,
2013-02-02 10:32:00,35.0,35.0,-100.00,SW,230,0.0,0.0,99,0.00,,,0.01,128.000000,,2013-02-02 18:32:00,
2013-02-02 10:42:00,35.0,35.0,-100.00,SW,230,0.0,0.0,99,0.00,,,0.01,128.000000,,2013-02-02 18:42:00,
2013-02-02 10:52:00,35.0,35.0,-100.00,SW,230,0.0,0.0,99,0.00,,,0.01,128.000000,,2013-02-02 18:52:00,
2013-02-02 11:01:00,35.0,35.0,-100.00,SW,230,0.0,0.0,99,0.00,,,0.01,128.000000,,2013-02-02 19:01:00,
2013-02-02 11:11:00,35.0,35.0,-100.00,SW,230,0.0,0.0,99,0.00,,,0.01,128.000000,,2013-02-02 19:11:00,
2013-02-02 11:32:00,38.0,38.0,-100.00,SW,226,0.0,0.0,99,0.00,,,0.01,206.000000,,2013-02-02 19:32:00,
2013-02-02 11:42:00,38.0,38.0,-100.00,SW,226,0.0,0.0,99,0.00,,,0.01,206.000000,,2013-02-02 19:42:00,
2013-02-02 11:52:00,38.0,38.0,-100.00,SW,226,0.0,0.0,99,0.00,,,0.01,206.000000,,2013-02-02 19:52:00,
2013-02-02 12:01:00,38.0,38.0,-100.00,SW,226,0.0,0.0,99,0.00,,,0.01,206.000000,,2013-02-02 20:01:00,
2013-02-02 12:11:00,38.0,38.0,-100.00,SW,226,0.0,0.0,99,0.00,,,0.01,206.000000,,2013-02-02 20:11:00,
2013-02-02 12:32:00,41.0,41.0,-100.00,West,267,0.0,0.0,99,0.00,,,0.01,266.000000,,2013-02-02 20:32:00,
2013-02-02 12:42:00,41.0,41.0,-100.00,West,267,0.0,0.0,99,0.00,,,0.01,266.000000,,2013-02-02 20:42:00,
2013-02-02 12:52:00,41.0,41.0,-100.00,West,267,0.0,0.0,99,0.00,,,0.01,266.000000,,2013-02-02 20:52:00,
2013-02-02 13:01:00,41.0,41.0,-100.00,West,267,0.0,0.0,99,0.00,,,0.01,266.000000,,2013-02-02 21:01:00,
2013-02-02 13:11:00,41.0,41.0,-100.00,West,267,0.0,0.0,99,0.00,,,0.01,266.000000,,2013-02-02 21:11:00,
2013-02-02 13:32:00,42.0,42.0,-100.00,West,265,0.0,0.0,99,0.00,,,0.01,242.000000,,2013-02-02 21:32:00,
2013-02-02 13:42:00,42.0,42.0,-100.00,West,265,0.0,0.0,99,0.00,,,0.01,242.000000,,2013-02-02 21:42:00,
2013-02-02 13:52:00,42.0,42.0,-100.00,West,265,0.0,0.0,99,0.00,,,0.01,242.000000,,2013-02-02 21:52:00,
2013-02-02 14:02:00,42.0,42.0,-100.00,West,265,0.0,0.0,99,0.00,,,0.01,242.000000,,2013-02-02 22:02:00,
2013-02-02 14:11:00,42.0,42.0,-100.00,West,265,0.0,0.0,99,0.00,,,0.01,242.000000,,2013-02-02 22:11:00,
2013-02-02 14:32:00,45.0,44.0,-100.00,WSW,250,0.0,0.0,98,0.00,,,0.01,357.000000,,2013-02-02 22:32:00,
2013-02-02 14:42:00,45.0,44.0,-100.00,WSW,250,0.0,0.0,98,0.00,,,0.01,357.000000,,2013-02-02 22:42:00,
2013-02-02 14:52:00,45.0,44.0,-100.00,WSW,250,0.0,0.0,98,0.00,,,0.01,357.000000,,2013-02-02 22:52:00,
2013-02-02 15:01:00,45.0,44.0,-100.00,WSW,250,0.0,0.0,98,0.00,,,0.01,357.000000,,2013-02-02 23:01:00,
2013-02-02 15:11:00,45.0,44.0,-100.00,WSW,250,0.0,0.0,98,0.00,,,0.01,357.000000,,2013-02-02 23:11:00,
2013-02-02 15:32:00,45.0,44.0,-100.00,SW,230,0.0,0.0,96,0.00,,,0.01,248.000000,,2013-02-02 23:32:00,
2013-02-02 15:42:00,45.0,44.0,-100.00,SW,230,0.0,0.0,96,0.00,,,0.01,248.000000,,2013-02-02 23:42:00,
2013-02-02 15:52:00,45.0,44.0,-100.00,SW,230,0.0,0.0,96,0.00,,,0.01,248.000000,,2013-02-02 23:52:00,
2013-02-02 16:01:00,45.0,44.0,-100.00,SW,230,0.0,0.0,96,0.00,,,0.01,248.000000,,2013-02-03 00:01:00,
2013-02-02 16:11:00,45.0,44.0,-100.00,SW,230,0.0,0.0,96,0.00,,,0.01,248.000000,,2013-02-03 00:11:00,
2013-02-02 16:32:00,46.0,43.0,-100.00,SSW,206,0.0,0.0,90,0.00,,,0.01,180.000000,,2013-02-03 00:32:00,
2013-02-02 16:42:00,46.0,43.0,-100.00,SSW,206,0.0,0.0,90,0.00,,,0.01,180.000000,,2013-02-03 00:42:00,
2013-02-02 16:52:00,46.0,43.0,-100.00,SSW,206,0.0,0.0,90,0.00,,,0.01,180.000000,,2013-02-03 00:52:00,
2013-02-02 17:02:00,46.0,43.0,-100.00,SSW,206,0.0,0.0,90,0.00,,,0.01,180.000000,,2013-02-03 01:02:00,
2013-02-02 17:11:00,46.0,43.0,-100.00,SSW,206,0.0,0.0,90,0.00,,,0.01,180.000000,,2013-02-03 01:11:00,
2013-02-02 17:32:00,44.0,43.0,-100.00,South,182,0.0,0.0,95,0.00,,,0.01,53.000000,,2013-02-03 01:32:00,
2013-02-02 17:42:00,44.0,43.0,-100.00,South,182,0.0,0.0,95,0.00,,,0.01,53.000000,,2013-02-03 01:42:00,
2013-02-02 17:52:00,44.0,43.0,-100.00,South,182,0.0,0.0,95,0.00,,,0.01,53.000000,,2013-02-03 01:52:00,
2013-02-02 18:01:00,44.0,43.0,-100.00,South,182,0.0,0.0,95,0.00,,,0.01,53.000000,,2013-02-03 02:01:00,
2013-02-02 18:11:00,44.0,43.0,-100.00,South,182,0.0,0.0,95,0.00,,,0.01,53.000000,,2013-02-03 02:11:00,
2013-02-02 18:42:00,42.0,41.0,-100.00,SE,143,0.0,1.0,98,0.00,,,0.01,2.000000,,2013-02-03 02:42:00,
2013-02-02 18:52:00,42.0,41.0,-100.00,SE,143,0.0,1.0,98,0.00,,,0.01,2.000000,,2013-02-03 02:52:00,
2013-02-02 19:02:00,42.0,41.0,-100.00,SE,143,0.0,1.0,98,0.00,,,0.01,2.000000,,2013-02-03 03:02:00,
2013-02-02 19:11:00,42.0,41.0,-100.00,SE,143,0.0,1.0,98,0.00,,,0.01,2.000000,,2013-02-03 03:11:00,
2013-02-02 19:32:00,41.0,41.0,-100.00,NE,45,0.0,0.0,99,0.00,,,-99.99,0.000000,,2013-02-03 03:32:00,
2013-02-02 19:42:00,41.0,41.0,-100.00,NE,45,0.0,0.0,99,0.00,,,-99.99,0.000000,,2013-02-03 03:42:00,
2013-02-02 19:52:00,41.0,41.0,-100.00,NE,45,0.0,0.0,99,0.00,,,-99.99,0.000000,,2013-02-03 03:52:00,
2013-02-02 20:01:00,41.0,41.0,-100.00,NE,45,0.0,0.0,99,0.00,,,-99.99,0.000000,,2013-02-03 04:01:00,
2013-02-02 20:11:00,41.0,41.0,-100.00,NE,45,0.0,0.0,99,0.00,,,-99.99,0.000000,,2013-02-03 04:11:00,
2013-02-02 20:32:00,39.0,39.0,-100.00,SE,146,0.0,0.0,99,0.00,,,0.01,0.000000,,2013-02-03 04:32:00,
2013-02-02 20:42:00,39.0,39.0,-100.00,SE,146,0.0,0.0,99,0.00,,,0.01,0.000000,,2013-02-03 04:42:00,
2013-02-02 20:52:00,39.0,39.0,-100.00,SE,146,0.0,0.0,99,0.00,,,0.01,0.000000,,2013-02-03 04:52:00,
2013-02-02 21:03:00,39.0,39.0,-100.00,SE,146,0.0,0.0,99,0.00,,,0.01,0.000000,,2013-02-03 05:03:00,
2013-02-02 21:11:00,39.0,39.0,-100.00,SE,146,0.0,0.0,99,0.00,,,0.01,0.000000,,2013-02-03 05:11:00,
2013-02-02 21:32:00,39.0,39.0,-100.00,West,270,0.0,0.0,99,0.00,,,0.01,0.000000,,2013-02-03 05:32:00,
2013-02-02 21:42:00,39.0,39.0,-100.00,West,270,0.0,0.0,99,0.00,,,0.01,0.000000,,2013-02-03 05:42:00,
2013-02-02 21:52:00,39.0,39.0,-100.00,West,270,0.0,0.0,99,0.00,,,0.01,0.000000,,2013-02-03 05:52:00,
2013-02-02 22:02:00,39.0,39.0,-100.00,West,270,0.0,0.0,99,0.00,,,0.01,0.000000,,2013-02-03 06:02:00,
2013-02-02 22:11:00,39.0,39.0,-100.00,West,270,0.0,0.0,99,0.00,,,0.01,0.000000,,2013-02-03 06:11:00,
2013-02-02 22:32:00,39.0,39.0,-100.00,ENE,57,0.0,0.0,99,0.00,,,0.01,0.000000,,2013-02-03 06:32:00,
2013-02-02 22:42:00,39.0,39.0,-100.00,ENE,57,0.0,0.0,99,0.00,,,0.01,0.000000,,2013-02-03 06:42:00,
2013-02-02 22:52:00,39.0,39.0,-100.00,ENE,57,0.0,0.0,99,0.00,,,0.01,0.000000,,2013-02-03 06:52:00,
2013-02-02 23:01:00,39.0,39.0,-100.00,ENE,57,0.0,0.0,99,0.00,,,0.01,0.000000,,2013-02-03 07:01:00,
2013-02-02 23:11:00,39.0,39.0,-100.00,ENE,57,0.0,0.0,99,0.00,,,0.01,0.000000,,2013-02-03 07:11:00,
2013-02-02 23:32:00,35.0,35.0,-100.00,SW,229,0.0,0.0,99,0.00,,,0.01,0.000000,,2013-02-03 07:32:00,
2013-02-02 23:42:00,35.0,35.0,-100.00,SW,229,0.0,0.0,99,0.00,,,0.01,0.000000,,2013-02-03 07:42:00,
2013-02-02 23:52:00,35.0,35.0,-100.00,SW,229,0.0,0.0,99,0.00,,,0.01,0.000000,,2013-02-03 07:52:00,